TimeCDT,TemperatureF,Dew PointF,Humidity,Sea Level PressureIn,VisibilityMPH,Wind Direction,Wind SpeedMPH,Gust SpeedMPH,PrecipitationIn,Events,Conditions,WindDirDegrees,DateUTC
12:30 AM,60.8,60.8,100,29.91,3.0,NE,9.2,-,N/A,,Overcast,50,2012-10-23 05:30:00
12:54 AM,61.0,60.1,97,29.91,4.0,NE,8.1,-,N/A,,Overcast,50,2012-10-23 05:54:00
1:08 AM,60.8,60.8,100,29.92,6.0,ENE,8.1,-,N/A,,Overcast,70,2012-10-23 06:08:00
1:54 AM,60.1,60.1,100,29.92,5.0,East,6.9,-,N/A,,Overcast,80,2012-10-23 06:54:00
2:54 AM,61.0,60.1,97,29.91,5.0,Calm,Calm,-,N/A,,Overcast,0,2012-10-23 07:54:00
3:54 AM,60.1,59.0,96,29.91,5.0,SE,3.5,-,N/A,,Overcast,140,2012-10-23 08:54:00
4:54 AM,61.0,60.1,97,29.90,4.0,ENE,4.6,-,N/A,,Overcast,70,2012-10-23 09:54:00
5:27 AM,60.8,60.8,100,29.90,3.0,East,4.6,-,N/A,,Overcast,100,2012-10-23 10:27:00
5:54 AM,61.0,60.1,97,29.90,3.0,SE,3.5,-,N/A,,Overcast,130,2012-10-23 10:54:00
6:16 AM,60.8,60.8,100,29.90,2.5,SE,5.8,-,N/A,,Overcast,140,2012-10-23 11:16:00
6:38 AM,60.8,60.8,100,29.90,1.5,SE,3.5,-,N/A,,Overcast,130,2012-10-23 11:38:00
6:45 AM,60.8,60.8,100,29.89,0.8,East,4.6,-,N/A,,Overcast,100,2012-10-23 11:45:00
6:54 AM,61.0,60.1,97,29.90,0.8,East,3.5,-,N/A,,Mist,90,2012-10-23 11:54:00
7:18 AM,60.8,60.8,100,29.89,1.5,ESE,4.6,-,N/A,,Overcast,120,2012-10-23 12:18:00
7:35 AM,60.8,60.8,100,29.89,2.0,East,3.5,-,N/A,,Overcast,100,2012-10-23 12:35:00
7:54 AM,61.0,61.0,100,29.90,2.0,East,4.6,-,N/A,,Overcast,100,2012-10-23 12:54:00
8:01 AM,60.8,60.8,100,29.90,1.5,East,4.6,-,N/A,,Overcast,90,2012-10-23 13:01:00
8:39 AM,62.6,60.8,94,29.91,1.8,East,5.8,-,N/A,,Overcast,90,2012-10-23 13:39:00
8:50 AM,62.6,60.8,94,29.91,2.0,East,5.8,-,N/A,,Overcast,90,2012-10-23 13:50:00
8:54 AM,62.1,61.0,96,29.91,2.0,East,6.9,-,N/A,,Overcast,90,2012-10-23 13:54:00
9:25 AM,62.6,60.8,94,29.92,2.0,ESE,6.9,-,N/A,,Overcast,110,2012-10-23 14:25:00
9:54 AM,62.1,61.0,96,29.93,2.0,ESE,8.1,-,0.00,Rain,Light Rain,120,2012-10-23 14:54:00
10:03 AM,62.6,60.8,94,29.93,2.0,SE,6.9,-,0.00,Rain,Light Rain,130,2012-10-23 15:03:00
10:54 AM,63.0,62.1,97,29.91,3.0,ESE,4.6,-,0.05,,Overcast,120,2012-10-23 15:54:00
11:54 AM,64.0,63.0,96,29.92,3.0,ESE,5.8,-,0.00,,Overcast,120,2012-10-23 16:54:00
12:42 PM,68.0,66.2,94,29.90,7.0,SSW,8.1,-,N/A,,Overcast,210,2012-10-23 17:42:00
12:54 PM,68.0,64.9,90,29.89,8.0,SW,9.2,-,N/A,,Overcast,230,2012-10-23 17:54:00
1:32 PM,69.8,64.4,83,29.88,10.0,SW,6.9,-,N/A,,Overcast,230,2012-10-23 18:32:00
1:54 PM,70.0,64.9,84,29.87,10.0,South,8.1,-,N/A,,Overcast,190,2012-10-23 18:54:00
2:54 PM,71.1,64.0,78,29.85,10.0,South,9.2,-,N/A,,Mostly Cloudy,170,2012-10-23 19:54:00
3:54 PM,70.0,63.0,78,29.85,10.0,SSE,13.8,-,0.00,,Mostly Cloudy,160,2012-10-23 20:54:00
4:54 PM,70.0,63.0,78,29.85,10.0,SSE,15.0,-,N/A,,Mostly Cloudy,160,2012-10-23 21:54:00
5:35 PM,68.0,64.4,88,29.86,10.0,SSE,9.2,-,N/A,,Overcast,160,2012-10-23 22:35:00
5:54 PM,68.0,62.6,83,29.87,10.0,South,11.5,-,N/A,,Mostly Cloudy,170,2012-10-23 22:54:00
6:54 PM,66.9,62.1,84,29.88,10.0,SSE,11.5,-,N/A,,Mostly Cloudy,150,2012-10-23 23:54:00
7:54 PM,66.0,62.1,87,29.89,10.0,SSE,9.2,-,N/A,,Mostly Cloudy,150,2012-10-24 00:54:00
8:54 PM,66.0,62.1,87,29.90,10.0,South,9.2,-,N/A,,Overcast,180,2012-10-24 01:54:00
9:54 PM,66.0,62.1,87,29.91,10.0,South,9.2,-,N/A,,Overcast,180,2012-10-24 02:54:00
10:54 PM,64.9,62.1,90,29.91,10.0,South,9.2,-,N/A,,Overcast,170,2012-10-24 03:54:00
11:54 PM,64.9,62.1,90,29.90,10.0,South,10.4,-,N/A,,Overcast,180,2012-10-24 04:54:00